Overview Statistics Trail Chart Weather Telemetry Raw packets
 

This is the latest recevied weather packets stored in our database for station/object EA4HRG-10. If no packets are shown the sender has not sent any weather packets the latest 10 day(s).

<< 28 29 30 31 32 >>
Time Temp. Humidity Pressure Rain* Wind** Luminosity Snow
1787971720 8.89° C 66% 1023.4 hPa - - - -
1787970820 8.89° C 65% 1023.2 hPa - - - -
1787969920 8.89° C 64% 1023.2 hPa - - - -
1787969020 9.44° C 63% 1022.9 hPa - - - -
1787968120 9.44° C 62% 1023 hPa - - - -
1787967220 10° C 60% 1023 hPa - - - -
1787966320 10° C 60% 1023.1 hPa - - - -
1787965420 10° C 60% 1023 hPa - - - -
1787964520 10.56° C 60% 1022.9 hPa - - - -
1787963620 10.56° C 59% 1022.8 hPa - - - -
1787962720 11.11° C 56% 1022.8 hPa - - - -
1787961820 11.11° C 55% 1022.9 hPa - - - -
1787960920 11.67° C 55% 1022.8 hPa - - - -
1787960020 11.67° C 53% 1022.7 hPa - - - -
1787959120 12.22° C 52% 1022.6 hPa - - - -
1787958220 12.78° C 50% 1022.3 hPa - - - -
1787957320 12.78° C 50% 1022.2 hPa - - - -
1787956420 13.33° C 49% 1022 hPa - - - -
1787955520 13.89° C 48% 1021.6 hPa - - - -
1787954620 14.44° C 47% 1021.4 hPa - - - -
1787953720 15° C 47% 1021.2 hPa - - - -
1787953412 15° C 47% 914.1 hPa - - - -
1787952512 15.56° C 43% 914 hPa - - - -
1787951612 16.11° C 43% 914 hPa - - - -
1787950712 16.67° C 41% 914 hPa - - - -

* Rain since midnight (hover to see other rain measurements)
** Current wind speed in m/s (hover to see current wind gust speed)